Weather History for Philadelphia, PA

Change the Weather History Date:

Monday, March 17, 2014

  Actual Average Record
Temperature  
Mean Temperature 28 °F 44 °F  
Max Temperature 32 °F 53 °F 86 °F (1945)
Min Temperature 23 °F 35 °F 10 °F (1885)
Degree Days  
Heating Degree Days 37 21  
Month to date heating degree days 478 403  
Since 1 July heating degree days 4134 3885  
Cooling Degree Days 0 0  
Month to date cooling degree days 0 0  
Year to date cooling degree days 0 0  
Moisture  
Dew Point 15 °F    
Average Humidity 64    
Maximum Humidity 81    
Minimum Humidity 47    
Precipitation  
Precipitation 0.23 in 0.13 in 1.04 in (1993)
Month to date precipitation 0.90 1.95  
Year to date precipitation 9.57 7.63  
Snow  
Snow 4.70 in 0.00 in 3.50 in (1892)
Month to date snowfall 8.1 2.1  
Since 1 July snowfall 67.6 21.1  
Snow Depth 5.00 in    
Sea Level Pressure  
Sea Level Pressure 30.08 in    
Wind  
Wind Speed 11 mph (NE)    
Max Wind Speed 22 mph    
Max Gust Speed 26 mph    
Visibility 5 miles    
Events Fog , Snow    
T = Trace of Precipitation, MM = Missing Value Source: NWS Daily Summary

Daily Weather History Graph

Daily Weather History Graph

Search for Another Location

Airport:

Trip Planner

Search our weather history database for the weather conditions in past years. The results will help you decide how hot, cold, wet, or windy it might be!

Date:

Astronomy

Mar. 17, 2014 Rise Set
Actual Time 7:09 AM EDT 7:09 PM EDT
Civil Twilight 6:42 AM EDT 7:36 PM EDT
Nautical Twilight 6:10 AM EDT 8:08 PM EDT
Astronomical Twilight 5:39 AM EDT 8:40 PM EDT
Moon 8:24 PM EDT (3/17) 7:23 AM EDT (3/17)
Length of Visible Light 12h 54m
Length of Day
12h 00m
Full, 99% of the Moon is Illuminated
Mar 17
Full
Mar 23
Last Quarter
Mar 30
New
Apr 7
First Quarter
Apr 15
Full

Hourly Weather History & Observations

Time (EDT) Temp. Windchill Dew Point Humidity Pressure Visibility Wind Dir Wind Speed Gust Speed Precip Events Conditions
12:45 AM 32.0 °F 21.6 °F 5.0 °F 32% 30.11 in 9.0 mi NE 15.0 mph 25.3 mph 0.00 in Snow Light Snow
12:54 AM 30.9 °F 18.1 °F 8.1 °F 38% 30.11 in 9.0 mi NNE 21.9 mph 27.6 mph 0.00 in Snow Light Snow
1:20 AM 28.9 °F 16.5 °F 14.0 °F 54% 30.10 in 6.0 mi NNE 18.4 mph 25.3 mph 0.00 in Snow Light Snow
1:40 AM 28.9 °F 16.5 °F 14.0 °F 54% 30.09 in 7.0 mi NE 18.4 mph 23.0 mph 0.00 in Snow Light Snow
1:44 AM 28.9 °F 16.9 °F 14.0 °F 54% 30.09 in 6.0 mi NE 17.3 mph - 0.00 in Snow Light Snow
1:54 AM 28.9 °F 17.7 °F 15.1 °F 56% 30.09 in 6.0 mi NE 15.0 mph 23.0 mph 0.00 in Snow Light Snow
2:02 AM 28.0 °F 16.5 °F 16.0 °F 61% 30.09 in 5.0 mi NE 15.0 mph 21.9 mph 0.00 in Snow Light Snow
2:13 AM 28.0 °F 17.5 °F 17.1 °F 63% 30.08 in 4.0 mi ENE 12.7 mph - 0.00 in Snow Light Snow
2:20 AM 28.0 °F 16.5 °F 17.1 °F 63% 30.08 in 2.5 mi NE 15.0 mph 23.0 mph 0.00 in Snow Light Snow
2:33 AM 27.0 °F 15.2 °F 18.0 °F 69% 30.07 in 1.8 mi NE 15.0 mph 21.9 mph 0.00 in Snow Light Snow
2:40 AM 27.0 °F 15.6 °F 18.0 °F 69% 30.07 in 1.8 mi NE 13.8 mph 23.0 mph 0.00 in Snow Light Snow
2:54 AM 26.1 °F 15.0 °F 19.0 °F 75% 30.06 in 1.8 mi ENE 12.7 mph - 0.00 in Snow Light Snow
2:58 AM 26.1 °F 15.6 °F 19.9 °F 78% 30.06 in 1.0 mi ENE 11.5 mph - 0.00 in Snow Light Snow
3:08 AM 26.1 °F 15.6 °F 19.9 °F 78% 30.07 in 0.8 mi ENE 11.5 mph - 0.00 in Snow Light Snow
3:42 AM 26.1 °F 16.8 °F 21.0 °F 81% 30.07 in 0.8 mi ENE 9.2 mph - 0.02 in Snow Light Snow
3:54 AM 26.1 °F 17.6 °F 21.0 °F 81% 30.06 in 0.8 mi ENE 8.1 mph - 0.03 in Snow Light Snow
4:02 AM 26.1 °F 17.6 °F 21.0 °F 81% 30.06 in 0.5 mi ENE 8.1 mph - 0.01 in Fog , Snow Snow
4:09 AM 26.1 °F 17.6 °F 21.0 °F 81% 30.06 in 0.5 mi NE 8.1 mph - 0.01 in Fog , Snow Snow
4:48 AM 26.6 °F 16.2 °F 21.2 °F 80% 30.07 in 0.8 mi NE 11.5 mph - 0.05 in Snow Light Snow
4:54 AM 26.1 °F 15.0 °F 21.0 °F 81% 30.07 in 0.8 mi NNE 12.7 mph - 0.05 in Snow Light Snow
5:44 AM 25.0 °F 13.1 °F 19.9 °F 81% 30.06 in 0.8 mi NE 13.8 mph - 0.02 in Snow Light Snow
5:54 AM 25.0 °F 12.6 °F 19.9 °F 81% 30.06 in 0.8 mi NE 15.0 mph - 0.03 in Snow Light Snow
6:02 AM 25.0 °F 13.6 °F 19.9 °F 81% 30.07 in 1.5 mi NE 12.7 mph - 0.00 in Snow Light Snow
6:26 AM 25.0 °F 14.8 °F 19.0 °F 78% 30.06 in 1.0 mi NE 10.4 mph - 0.02 in Snow Light Snow
6:54 AM 24.1 °F 12.5 °F 19.0 °F 81% 30.06 in 1.8 mi NE 12.7 mph 23.0 mph 0.03 in Snow Light Snow
7:21 AM 23.0 °F 9.6 °F 17.1 °F 78% 30.07 in 1.2 mi NE 16.1 mph 23.0 mph 0.00 in Snow Light Snow
7:50 AM 23.0 °F 10.1 °F 17.6 °F 80% 30.08 in 1.2 mi NE 15.0 mph - 0.00 in Snow Light Snow
7:54 AM 23.0 °F 10.1 °F 17.1 °F 78% 30.07 in 1.5 mi NE 15.0 mph - 0.01 in Snow Light Snow
8:08 AM 23.0 °F 10.1 °F 17.1 °F 78% 30.08 in 3.0 mi NNE 15.0 mph - 0.00 in Snow Light Snow
8:19 AM 23.0 °F 10.1 °F 17.1 °F 78% 30.08 in 5.0 mi NE 15.0 mph - 0.00 in Snow Light Snow
8:27 AM 24.1 °F 10.6 °F 17.1 °F 75% 30.08 in 7.0 mi NNE 17.3 mph - 0.00 in Snow Light Snow
8:50 AM 24.8 °F 11.9 °F 15.8 °F 69% 30.08 in 10.0 mi NNE 16.1 mph - 0.00 in Snow Light Snow
8:54 AM 24.1 °F 10.1 °F 15.1 °F 69% 30.08 in 10.0 mi NE 18.4 mph - 0.00 in Snow Light Snow
9:09 AM 24.1 °F 12.0 °F 14.0 °F 65% 30.08 in 10.0 mi NE 13.8 mph 23.0 mph 0.00 in   Overcast
9:32 AM 25.0 °F 13.1 °F 10.9 °F 55% 30.06 in 7.0 mi NNE 13.8 mph - 0.00 in Snow Light Snow
9:35 AM 25.0 °F 12.2 °F 10.9 °F 55% 30.06 in 4.0 mi NNE 16.1 mph - 0.00 in Snow Light Snow
9:44 AM 25.0 °F 12.6 °F 12.0 °F 58% 30.07 in 5.0 mi North 15.0 mph 21.9 mph 0.00 in Snow Light Snow
9:51 AM 24.8 °F 11.5 °F 10.4 °F 54% 30.06 in 4.0 mi North 17.3 mph 23.0 mph 0.00 in Snow Light Snow
9:54 AM 25.0 °F 11.3 °F 12.0 °F 58% 30.06 in 4.0 mi NNE 18.4 mph 23.0 mph 0.00 in Snow Light Snow
10:16 AM 24.1 °F 12.5 °F 12.9 °F 62% 30.08 in 5.0 mi NNE 12.7 mph - 0.00 in Snow Light Snow
10:24 AM 25.0 °F 11.3 °F 12.9 °F 60% 30.07 in 7.0 mi North 18.4 mph - 0.00 in Snow Light Snow
10:39 AM 25.0 °F 13.1 °F 12.0 °F 58% 30.08 in 10.0 mi NE 13.8 mph 24.2 mph 0.00 in   Overcast
10:54 AM 25.0 °F 14.8 °F 12.0 °F 58% 30.08 in 10.0 mi NNE 10.4 mph - 0.00 in   Overcast
11:36 AM 25.0 °F 13.1 °F 12.0 °F 58% 30.07 in 7.0 mi NE 13.8 mph - 0.00 in Snow Light Snow
11:49 AM 24.8 °F 14.0 °F 12.2 °F 59% 30.09 in 5.0 mi NNE 11.5 mph 21.9 mph 0.01 in Snow Light Snow
11:54 AM 26.1 °F 15.0 °F 12.9 °F 58% 30.09 in 5.0 mi NE 12.7 mph - 0.01 in Snow Light Snow
12:06 PM 26.1 °F 15.0 °F 12.9 °F 58% 30.09 in 3.0 mi North 12.7 mph - 0.00 in Snow Light Snow
12:54 PM 26.1 °F 15.6 °F 14.0 °F 60% 30.08 in 4.0 mi NNE 11.5 mph - 0.00 in Snow Light Snow
1:24 PM 27.0 °F 16.7 °F 12.9 °F 56% 30.08 in 7.0 mi NE 11.5 mph - 0.00 in Snow Light Snow
1:54 PM 27.0 °F 18.7 °F 14.0 °F 58% 30.07 in 9.0 mi ENE 8.1 mph - 0.00 in Snow Light Snow
2:42 PM 28.9 °F 18.6 °F 14.0 °F 54% 30.04 in 10.0 mi NE 12.7 mph 19.6 mph 0.00 in   Overcast
2:54 PM 28.9 °F 19.2 °F 14.0 °F 54% 30.04 in 10.0 mi NE 11.5 mph - 0.00 in   Overcast
3:54 PM 30.0 °F 22.4 °F 15.1 °F 54% 30.06 in 10.0 mi ENE 8.1 mph - N/A   Overcast
4:54 PM 30.9 °F 23.5 °F 15.1 °F 52% 30.06 in 10.0 mi ENE 8.1 mph - N/A   Overcast
5:54 PM 30.9 °F 23.5 °F 15.1 °F 52% 30.07 in 10.0 mi ENE 8.1 mph - N/A   Overcast
6:54 PM 30.9 °F 23.5 °F 14.0 °F 50% 30.08 in 10.0 mi ENE 8.1 mph - N/A   Overcast
7:54 PM 30.9 °F 23.5 °F 14.0 °F 50% 30.09 in 10.0 mi East 8.1 mph - N/A   Overcast
8:54 PM 30.9 °F 22.8 °F 12.9 °F 47% 30.11 in 10.0 mi ENE 9.2 mph - N/A   Overcast
9:54 PM 30.9 °F 26.2 °F 14.0 °F 50% 30.13 in 10.0 mi ENE 4.6 mph - N/A   Overcast
10:54 PM 30.9 °F 24.3 °F 14.0 °F 50% 30.13 in 10.0 mi ENE 6.9 mph - N/A   Overcast
11:54 PM 30.0 °F 23.2 °F 15.1 °F 54% 30.13 in 10.0 mi ENE 6.9 mph - N/A   Overcast